Location: Gleizolles
(44.4833°N, 6.7667°E)
Time: 03:19:00
(UTC+00:00)

Vanguard 1 Rocket - Pass Details

Date: 28 June 2024
Orbit: 650 x 4219 km, 34.3° (Epoch: 15 July)

Event Time Altitude Azimuth Distance (km) Brightness Sun altitude
Rises 03:18:34 0° 268° (W) 5,904 11.1 -5.4°
Reaches altitude 10° 03:21:50 10° 265° (W) 5,273 10.8 -4.9°
Maximum altitude 03:38:49 59° 192° (SSW) 4,079 10.5 -2.6°
Drops below altitude 10° 04:03:55 10° 121° (ESE) 7,379 12.4 1.1°
Sets 04:09:37 0° 118° (ESE) 8,270 12.7 2.0°
